This is the latest recevied weather packets stored in our database for station/object SPRFLD. If no packets are shown the sender has not sent any weather packets the latest 10 day(s).
| Time | Temp. | Humidity | Pressure | Rain* | Wind** | Luminosity | Snow |
|---|---|---|---|---|---|---|---|
| 1777863510 | 23.89° C | 39% | 1010.7 hPa | 0 mm | - | - | - |
| 1777862886 | 24.44° C | 38% | 1010.7 hPa | 0 mm | - | - | - |
| 1777860551 | 26.11° C | 36% | 1010.8 hPa | 0 mm | - | - | - |
| 1777858705 | 27.22° C | 36% | 1010.9 hPa | 0 mm | - | - | - |
| 1777858100 | 27.22° C | 37% | 1010.9 hPa | 0 mm | - | - | - |
| 1777852112 | 31.67° C | 27% | 1010.4 hPa | 0 mm | - | - | - |
| 1777851511 | 31.67° C | 28% | 1010.4 hPa | 0 mm | - | - | - |
| 1777850904 | 31.11° C | 28% | 1010.5 hPa | 0 mm | - | - | - |
| 1777849722 | 30° C | 32% | 1010.6 hPa | 0 mm | - | - | - |
| 1777848495 | 28.89° C | 34% | 1011.1 hPa | 0 mm | - | - | - |
| 1777847892 | 28.89° C | 34% | 1011.2 hPa | 0 mm | - | - | - |
| 1777845484 | 28.89° C | 35% | 1011.6 hPa | 0 mm | - | - | - |
| 1777843735 | 28.89° C | 34% | 1011.7 hPa | 0 mm | - | - | - |
| 1777841925 | 29.44° C | 38% | 1011.8 hPa | 0 mm | - | - | - |
| 1777841302 | 30° C | 35% | 1011.8 hPa | 0 mm | - | - | - |
| 1777840700 | 30° C | 39% | 1011.9 hPa | 0 mm | - | - | - |
| 1777836482 | 23.89° C | 52% | 1012.6 hPa | 0 mm | - | - | - |
| 1777834103 | 21.11° C | 58% | 1012.9 hPa | 0 mm | - | - | - |
| 1777833502 | 21.11° C | 59% | 1012.9 hPa | 0 mm | - | - | - |
| 1777832899 | 21.11° C | 53% | 1013 hPa | 0 mm | - | - | - |
| 1777831717 | 20.56° C | 47% | 1013 hPa | 0 mm | - | - | - |
| 1777831095 | 20° C | 52% | 1013 hPa | 0 mm | - | - | - |
| 1777830492 | 19.44° C | 54% | 1013 hPa | 0 mm | - | - | - |
| 1777828688 | 18.33° C | 57% | 1012.9 hPa | 0 mm | - | - | - |
| 1777826912 | 17.78° C | 57% | 1012.9 hPa | 0 mm | - | - | - |
* Rain latest hour (hover to see other rain measurements)
** Current wind speed in m/s (hover to see current wind gust speed)